Time,TemperatureF,DewpointF,PressureIn,WindDirection,WindDirectionDegrees,WindSpeedMPH,WindSpeedGustMPH,Humidity,HourlyPrecipIn,Conditions,Clouds,dailyrainin,SoftwareType,DateUTC
2013-11-03 00:28:00,47.6,-0.8,24.90,West,267,15.0,-999.0,13,-99.99,,,-99.99,dwt +perl,2013-11-03 07:28:00,
2013-11-03 00:33:00,47.9,-4.0,24.90,West,274,15.0,-999.0,11,-99.99,,,-99.99,dwt +perl,2013-11-03 07:33:00,
2013-11-03 00:38:00,48.3,-3.7,24.90,West,272,9.0,-999.0,11,-99.99,,,-99.99,dwt +perl,2013-11-03 07:38:00,
2013-11-03 00:43:00,48.5,-1.7,24.90,WSW,243,11.0,-999.0,12,-99.99,,,-99.99,dwt +perl,2013-11-03 07:43:00,
2013-11-03 00:48:00,47.6,0.8,24.90,WSW,253,9.0,-999.0,14,-99.99,,,-99.99,dwt +perl,2013-11-03 07:48:00,
2013-11-03 00:53:00,47.2,0.5,24.90,WSW,256,8.0,-999.0,14,-99.99,,,-99.99,dwt +perl,2013-11-03 07:53:00,
2013-11-03 00:58:00,47.7,-2.4,24.90,West,270,12.0,-999.0,12,-99.99,,,-99.99,dwt +perl,2013-11-03 07:58:00,
2013-11-03 01:03:00,48.1,-0.4,24.90,West,265,7.0,-999.0,13,-99.99,,,-99.99,dwt +perl,2013-11-03 08:03:00,
2013-11-03 01:08:00,47.4,0.6,24.90,West,280,9.0,-999.0,14,-99.99,,,-99.99,dwt +perl,2013-11-03 08:08:00,
2013-11-03 01:13:00,46.8,1.6,24.90,West,279,8.0,-999.0,15,-99.99,,,-99.99,dwt +perl,2013-11-03 08:13:00,
2013-11-03 01:18:00,46.5,1.4,24.90,West,276,9.0,-999.0,15,-99.99,,,-99.99,dwt +perl,2013-11-03 08:18:00,
2013-11-03 01:23:00,46.2,1.1,24.90,WNW,283,8.0,-999.0,15,-99.99,,,-99.99,dwt +perl,2013-11-03 08:23:00,
2013-11-03 01:28:00,46.0,1.0,24.90,West,272,9.0,-999.0,15,-99.99,,,-99.99,dwt +perl,2013-11-03 08:28:00,
2013-11-03 01:33:00,45.8,2.2,24.90,West,280,7.0,-999.0,16,-99.99,,,-99.99,dwt +perl,2013-11-03 08:33:00,
2013-11-03 01:38:00,45.8,2.2,24.90,West,271,9.0,-999.0,16,-99.99,,,-99.99,dwt +perl,2013-11-03 08:38:00,
2013-11-03 01:43:00,45.8,2.2,24.91,West,279,8.0,-999.0,16,-99.99,,,-99.99,dwt +perl,2013-11-03 08:43:00,
2013-11-03 01:48:00,45.9,2.3,24.90,West,280,9.0,-999.0,16,-99.99,,,-99.99,dwt +perl,2013-11-03 08:48:00,
2013-11-03 01:53:00,45.9,2.3,24.90,West,274,9.0,-999.0,16,-99.99,,,-99.99,dwt +perl,2013-11-03 08:53:00,
2013-11-03 01:58:00,45.9,0.9,24.90,WNW,285,9.0,-999.0,15,-99.99,,,-99.99,dwt +perl,2013-11-03 08:58:00,
2013-11-03 01:03:00,46.0,1.0,24.90,WNW,289,6.0,-999.0,15,-99.99,,,-99.99,dwt +perl,2013-11-03 09:03:00,
2013-11-03 01:08:00,46.1,2.4,24.90,West,271,9.0,-999.0,16,-99.99,,,-99.99,dwt +perl,2013-11-03 09:08:00,
2013-11-03 01:13:00,45.9,2.3,24.90,West,277,9.0,-999.0,16,-99.99,,,-99.99,dwt +perl,2013-11-03 09:13:00,
2013-11-03 01:18:00,45.9,2.3,24.89,WSW,249,10.0,-999.0,16,-99.99,,,-99.99,dwt +perl,2013-11-03 09:18:00,
2013-11-03 01:23:00,45.9,2.3,24.89,West,269,8.0,-999.0,16,-99.99,,,-99.99,dwt +perl,2013-11-03 09:23:00,
2013-11-03 01:28:00,46.3,-0.2,24.89,WNW,287,10.0,-999.0,14,-99.99,,,-99.99,dwt +perl,2013-11-03 09:28:00,
2013-11-03 01:33:00,46.6,-1.6,24.89,West,276,7.0,-999.0,13,-99.99,,,-99.99,dwt +perl,2013-11-03 09:33:00,
2013-11-03 01:38:00,46.9,-1.3,24.89,WNW,285,4.0,-999.0,13,-99.99,,,-99.99,dwt +perl,2013-11-03 09:38:00,
2013-11-03 01:43:00,47.9,6.5,24.89,WNW,285,0.0,-999.0,18,-99.99,,,-99.99,dwt +perl,2013-11-03 09:43:00,
2013-11-03 01:48:00,48.6,-1.7,24.89,WNW,285,4.0,-999.0,12,-99.99,,,-99.99,dwt +perl,2013-11-03 09:48:00,
2013-11-03 01:53:00,48.1,-0.4,24.89,WNW,285,3.0,-999.0,13,-99.99,,,-99.99,dwt +perl,2013-11-03 09:53:00,
2013-11-03 01:58:00,48.7,9.4,24.89,WNW,285,0.0,-999.0,20,-99.99,,,-99.99,dwt +perl,2013-11-03 09:58:00,
2013-11-03 02:03:00,49.1,16.6,24.89,WNW,285,0.0,-999.0,27,-99.99,,,-99.99,dwt +perl,2013-11-03 10:03:00,
2013-11-03 02:08:00,49.1,8.6,24.89,WNW,285,1.0,-999.0,19,-99.99,,,-99.99,dwt +perl,2013-11-03 10:08:00,
2013-11-03 02:13:00,49.1,14.8,24.89,WNW,285,0.0,-999.0,25,-99.99,,,-99.99,dwt +perl,2013-11-03 10:13:00,
2013-11-03 02:18:00,49.1,8.6,24.89,WNW,285,1.0,-999.0,19,-99.99,,,-99.99,dwt +perl,2013-11-03 10:18:00,
2013-11-03 02:23:00,49.0,10.8,24.89,WNW,285,1.0,-999.0,21,-99.99,,,-99.99,dwt +perl,2013-11-03 10:23:00,
2013-11-03 02:28:00,48.9,10.7,24.89,WNW,285,3.0,-999.0,21,-99.99,,,-99.99,dwt +perl,2013-11-03 10:28:00,
2013-11-03 02:33:00,48.9,10.7,24.89,WNW,285,3.0,-999.0,21,-99.99,,,-99.99,dwt +perl,2013-11-03 10:33:00,
2013-11-03 02:38:00,48.7,9.4,24.89,WNW,287,3.0,-999.0,20,-99.99,,,-99.99,dwt +perl,2013-11-03 10:38:00,
2013-11-03 02:43:00,48.7,17.1,24.89,WNW,287,1.0,-999.0,28,-99.99,,,-99.99,dwt +perl,2013-11-03 10:43:00,
2013-11-03 02:48:00,48.9,19.6,24.89,WNW,286,0.0,-999.0,31,-99.99,,,-99.99,dwt +perl,2013-11-03 10:48:00,
2013-11-03 02:53:00,49.1,22.0,24.89,WNW,287,0.0,-999.0,34,-99.99,,,-99.99,dwt +perl,2013-11-03 10:53:00,
2013-11-03 02:58:00,49.1,23.3,24.88,WNW,286,0.0,-999.0,36,-99.99,,,-99.99,dwt +perl,2013-11-03 10:58:00,
2013-11-03 03:03:00,48.8,17.2,24.89,WNW,286,2.0,-999.0,28,-99.99,,,-99.99,dwt +perl,2013-11-03 11:03:00,
2013-11-03 03:08:00,48.3,15.9,24.88,WNW,287,1.0,-999.0,27,-99.99,,,-99.99,dwt +perl,2013-11-03 11:08:00,
2013-11-03 03:13:00,48.3,15.9,24.88,WNW,286,0.0,-999.0,27,-99.99,,,-99.99,dwt +perl,2013-11-03 11:13:00,
2013-11-03 03:18:00,48.4,17.6,24.88,WNW,287,1.0,-999.0,29,-99.99,,,-99.99,dwt +perl,2013-11-03 11:18:00,
2013-11-03 03:23:00,48.4,16.8,24.89,WNW,287,1.0,-999.0,28,-99.99,,,-99.99,dwt +perl,2013-11-03 11:23:00,
2013-11-03 03:28:00,48.2,15.8,24.88,WNW,286,0.0,-999.0,27,-99.99,,,-99.99,dwt +perl,2013-11-03 11:28:00,
2013-11-03 03:33:00,47.8,15.5,24.89,WNW,287,2.0,-999.0,27,-99.99,,,-99.99,dwt +perl,2013-11-03 11:33:00,
2013-11-03 03:38:00,47.8,13.7,24.88,WNW,286,2.0,-999.0,25,-99.99,,,-99.99,dwt +perl,2013-11-03 11:38:00,
2013-11-03 03:43:00,47.6,10.7,24.88,NNE,22,5.0,-999.0,22,-99.99,,,-99.99,dwt +perl,2013-11-03 11:43:00,
2013-11-03 03:48:00,47.2,5.9,24.88,NE,37,5.0,-999.0,18,-99.99,,,-99.99,dwt +perl,2013-11-03 11:48:00,
2013-11-03 03:53:00,47.0,6.9,24.88,NE,37,4.0,-999.0,19,-99.99,,,-99.99,dwt +perl,2013-11-03 11:53:00,
2013-11-03 03:58:00,46.9,5.6,24.88,NE,37,6.0,-999.0,18,-99.99,,,-99.99,dwt +perl,2013-11-03 11:58:00,
2013-11-03 04:03:00,46.9,4.4,24.89,NE,40,4.0,-999.0,17,-99.99,,,-99.99,dwt +perl,2013-11-03 12:03:00,
2013-11-03 04:08:00,46.8,4.3,24.89,NE,35,5.0,-999.0,17,-99.99,,,-99.99,dwt +perl,2013-11-03 12:08:00,
2013-11-03 04:13:00,46.6,7.7,24.89,NE,42,4.0,-999.0,20,-99.99,,,-99.99,dwt +perl,2013-11-03 12:13:00,
2013-11-03 04:18:00,46.6,7.7,24.89,NE,42,2.0,-999.0,20,-99.99,,,-99.99,dwt +perl,2013-11-03 12:18:00,
2013-11-03 04:23:00,46.7,8.9,24.89,NE,56,5.0,-999.0,21,-99.99,,,-99.99,dwt +perl,2013-11-03 12:23:00,
2013-11-03 04:28:00,46.3,10.6,24.89,ENE,66,5.0,-999.0,23,-99.99,,,-99.99,dwt +perl,2013-11-03 12:28:00,
2013-11-03 04:33:00,46.1,17.2,24.89,ENE,67,7.0,-999.0,31,-99.99,,,-99.99,dwt +perl,2013-11-03 12:33:00,
2013-11-03 04:38:00,45.8,19.0,24.89,ENE,67,7.0,-999.0,34,-99.99,,,-99.99,dwt +perl,2013-11-03 12:38:00,
2013-11-03 04:43:00,45.3,17.2,24.90,ENE,67,5.0,-999.0,32,-99.99,,,-99.99,dwt +perl,2013-11-03 12:43:00,
2013-11-03 04:48:00,45.8,19.0,24.90,ENE,67,7.0,-999.0,34,-99.99,,,-99.99,dwt +perl,2013-11-03 12:48:00,
2013-11-03 04:53:00,45.5,19.5,24.90,ENE,67,5.0,-999.0,35,-99.99,,,-99.99,dwt +perl,2013-11-03 12:53:00,
2013-11-03 04:58:00,45.2,22.3,24.90,ENE,67,7.0,-999.0,40,-99.99,,,-99.99,dwt +perl,2013-11-03 12:58:00,
2013-11-03 05:03:00,44.8,22.5,24.89,ENE,67,8.0,-999.0,41,-99.99,,,-99.99,dwt +perl,2013-11-03 13:03:00,
2013-11-03 05:08:00,44.2,25.3,24.89,ENE,66,7.0,-999.0,47,-99.99,,,-99.99,dwt +perl,2013-11-03 13:08:00,
2013-11-03 05:13:00,43.9,26.0,24.89,ENE,62,8.0,-999.0,49,-99.99,,,-99.99,dwt +perl,2013-11-03 13:13:00,
2013-11-03 05:18:00,43.6,27.1,24.89,ENE,62,10.0,-999.0,52,-99.99,,,-99.99,dwt +perl,2013-11-03 13:18:00,
2013-11-03 05:23:00,43.4,27.9,24.89,ENE,59,9.0,-999.0,54,-99.99,,,-99.99,dwt +perl,2013-11-03 13:23:00,
2013-11-03 05:28:00,42.7,29.8,24.89,NE,55,9.0,-999.0,60,-99.99,,,-99.99,dwt +perl,2013-11-03 13:28:00,
2013-11-03 05:33:00,42.4,31.1,24.89,NE,55,8.0,-999.0,64,-99.99,,,-99.99,dwt +perl,2013-11-03 13:33:00,
2013-11-03 05:38:00,42.0,31.1,24.89,NE,54,8.0,-999.0,65,-99.99,,,-99.99,dwt +perl,2013-11-03 13:38:00,
2013-11-03 05:43:00,41.9,31.8,24.89,NE,53,10.0,-999.0,67,-99.99,,,-99.99,dwt +perl,2013-11-03 13:43:00,
2013-11-03 05:48:00,41.8,31.6,24.89,NE,51,9.0,-999.0,67,-99.99,,,-99.99,dwt +perl,2013-11-03 13:48:00,
2013-11-03 05:53:00,41.5,31.7,24.89,NE,38,3.0,-999.0,68,-99.99,,,-99.99,dwt +perl,2013-11-03 13:53:00,
2013-11-03 05:58:00,41.1,32.1,24.89,NNE,28,4.0,-999.0,70,-99.99,,,-99.99,dwt +perl,2013-11-03 13:58:00,
2013-11-03 06:03:00,40.7,32.0,24.90,NNE,33,7.0,-999.0,71,-99.99,,,-99.99,dwt +perl,2013-11-03 14:03:00,
2013-11-03 06:08:00,40.7,32.4,24.90,NNE,30,6.0,-999.0,72,-99.99,,,-99.99,dwt +perl,2013-11-03 14:08:00,
2013-11-03 06:13:00,40.9,31.9,24.90,NE,46,6.0,-999.0,70,-99.99,,,-99.99,dwt +perl,2013-11-03 14:13:00,
2013-11-03 06:18:00,41.2,31.8,24.90,NE,35,6.0,-999.0,69,-99.99,,,-99.99,dwt +perl,2013-11-03 14:18:00,
2013-11-03 06:23:00,41.2,31.5,24.90,NNE,27,7.0,-999.0,68,-99.99,,,-99.99,dwt +perl,2013-11-03 14:23:00,
2013-11-03 06:28:00,41.5,31.7,24.90,NE,48,10.0,-999.0,68,-99.99,,,-99.99,dwt +perl,2013-11-03 14:28:00,
2013-11-03 06:33:00,41.8,31.6,24.90,NNE,22,6.0,-999.0,67,-99.99,,,-99.99,dwt +perl,2013-11-03 14:33:00,
2013-11-03 06:38:00,42.0,31.9,24.90,NE,39,7.0,-999.0,67,-99.99,,,-99.99,dwt +perl,2013-11-03 14:38:00,
2013-11-03 06:43:00,42.4,31.9,24.90,NE,39,7.0,-999.0,66,-99.99,,,-99.99,dwt +perl,2013-11-03 14:43:00,
2013-11-03 06:48:00,42.8,31.9,24.91,ENE,64,16.0,-999.0,65,-99.99,,,-99.99,dwt +perl,2013-11-03 14:48:00,
2013-11-03 06:53:00,42.8,32.2,24.91,NE,35,8.0,-999.0,66,-99.99,,,-99.99,dwt +perl,2013-11-03 14:53:00,
2013-11-03 06:58:00,42.4,31.9,24.92,NNE,26,5.0,-999.0,66,-99.99,,,-99.99,dwt +perl,2013-11-03 14:58:00,
2013-11-03 07:08:00,42.6,30.9,24.92,NNE,20,9.0,-999.0,63,-99.99,,,-99.99,dwt +perl,2013-11-03 15:08:00,
2013-11-03 07:14:00,42.4,31.5,24.92,NE,47,9.0,-999.0,65,-99.99,,,-99.99,dwt +perl,2013-11-03 15:14:00,
2013-11-03 07:24:00,42.9,31.2,24.92,NE,39,8.0,-999.0,63,-99.99,,,-99.99,dwt +perl,2013-11-03 15:24:00,
2013-11-03 07:29:00,43.3,31.6,24.92,NE,46,15.0,-999.0,63,-99.99,,,-99.99,dwt +perl,2013-11-03 15:29:00,
2013-11-03 07:33:00,44.7,26.7,24.92,NE,48,11.0,-999.0,49,-99.99,,,-99.99,dwt +perl,2013-11-03 15:33:00,
2013-11-03 07:34:00,43.8,31.6,24.92,NE,52,16.0,-999.0,62,-99.99,,,-99.99,dwt +perl,2013-11-03 15:34:00,
2013-11-03 07:38:00,45.3,25.8,24.92,NE,45,18.0,-999.0,46,-99.99,,,-99.99,dwt +perl,2013-11-03 15:38:00,
2013-11-03 07:39:00,44.0,31.4,24.92,NE,34,8.0,-999.0,61,-99.99,,,-99.99,dwt +perl,2013-11-03 15:39:00,
2013-11-03 07:48:00,45.2,29.5,24.93,NE,51,14.0,-999.0,54,-99.99,,,-99.99,dwt +perl,2013-11-03 15:48:00,
2013-11-03 07:53:00,44.7,30.0,24.93,NE,37,7.0,-999.0,56,-99.99,,,-99.99,dwt +perl,2013-11-03 15:53:00,
2013-11-03 07:54:00,45.2,27.7,24.93,NE,47,13.0,-999.0,50,-99.99,,,-99.99,dwt +perl,2013-11-03 15:54:00,
2013-11-03 07:58:00,44.6,27.1,24.93,NE,34,6.0,-999.0,50,-99.99,,,-99.99,dwt +perl,2013-11-03 15:58:00,
2013-11-03 08:13:00,44.8,24.2,24.94,ENE,58,11.0,-999.0,44,-99.99,,,-99.99,dwt +perl,2013-11-03 16:13:00,
2013-11-03 08:14:00,44.6,24.6,24.93,NNE,30,12.0,-999.0,45,-99.99,,,-99.99,dwt +perl,2013-11-03 16:14:00,
2013-11-03 08:19:00,44.6,24.6,24.93,NE,40,5.0,-999.0,45,-99.99,,,-99.99,dwt +perl,2013-11-03 16:19:00,
2013-11-03 08:29:00,45.1,24.0,24.94,NNE,31,6.0,-999.0,43,-99.99,,,-99.99,dwt +perl,2013-11-03 16:29:00,
2013-11-03 08:34:00,45.3,24.1,24.95,NE,49,9.0,-999.0,43,-99.99,,,-99.99,dwt +perl,2013-11-03 16:34:00,
2013-11-03 08:38:00,45.2,22.3,24.95,NE,43,6.0,-999.0,40,-99.99,,,-99.99,dwt +perl,2013-11-03 16:38:00,
2013-11-03 08:39:00,45.3,23.6,24.95,NNE,22,2.0,-999.0,42,-99.99,,,-99.99,dwt +perl,2013-11-03 16:39:00,
2013-11-03 08:43:00,45.2,22.3,24.95,NNE,26,8.0,-999.0,40,-99.99,,,-99.99,dwt +perl,2013-11-03 16:43:00,
2013-11-03 08:44:00,45.4,23.1,24.95,NE,44,7.0,-999.0,41,-99.99,,,-99.99,dwt +perl,2013-11-03 16:44:00,
2013-11-03 08:48:00,45.4,22.5,24.94,NE,45,6.0,-999.0,40,-99.99,,,-99.99,dwt +perl,2013-11-03 16:48:00,
2013-11-03 08:53:00,45.6,22.7,24.94,NE,48,10.0,-999.0,40,-99.99,,,-99.99,dwt +perl,2013-11-03 16:53:00,
2013-11-03 08:58:00,45.5,22.6,24.95,NNE,18,7.0,-999.0,40,-99.99,,,-99.99,dwt +perl,2013-11-03 16:58:00,
2013-11-03 09:03:00,45.4,21.9,24.95,NNE,25,5.0,-999.0,39,-99.99,,,-99.99,dwt +perl,2013-11-03 17:03:00,
2013-11-03 09:08:00,45.6,22.1,24.95,NE,51,5.0,-999.0,39,-99.99,,,-99.99,dwt +perl,2013-11-03 17:08:00,
2013-11-03 09:18:00,45.8,24.6,24.96,NE,35,6.0,-999.0,43,-99.99,,,-99.99,dwt +perl,2013-11-03 17:18:00,
2013-11-03 09:24:00,45.7,22.2,24.95,NNE,26,5.0,-999.0,39,-99.99,,,-99.99,dwt +perl,2013-11-03 17:24:00,
2013-11-03 09:28:00,45.9,26.8,24.95,ENE,64,0.0,-999.0,47,-99.99,,,-99.99,dwt +perl,2013-11-03 17:28:00,
2013-11-03 09:33:00,46.3,27.7,24.95,ENE,60,4.0,-999.0,48,-99.99,,,-99.99,dwt +perl,2013-11-03 17:33:00,
2013-11-03 09:34:00,45.9,25.8,24.95,NE,54,3.0,-999.0,45,-99.99,,,-99.99,dwt +perl,2013-11-03 17:34:00,
2013-11-03 09:38:00,46.3,28.7,24.95,NE,52,2.0,-999.0,50,-99.99,,,-99.99,dwt +perl,2013-11-03 17:38:00,
2013-11-03 09:43:00,47.0,29.3,24.95,NE,56,2.0,-999.0,50,-99.99,,,-99.99,dwt +perl,2013-11-03 17:43:00,
2013-11-03 09:59:00,46.7,28.6,24.95,NE,54,1.0,-999.0,49,-99.99,,,-99.99,dwt +perl,2013-11-03 17:59:00,
2013-11-03 10:03:00,47.0,26.2,24.95,WNW,295,2.0,-999.0,44,-99.99,,,-99.99,dwt +perl,2013-11-03 18:03:00,
2013-11-03 10:04:00,47.1,27.9,24.95,NE,44,0.0,-999.0,47,-99.99,,,-99.99,dwt +perl,2013-11-03 18:04:00,
2013-11-03 10:09:00,46.9,27.2,24.95,NE,54,1.0,-999.0,46,-99.99,,,-99.99,dwt +perl,2013-11-03 18:09:00,
2013-11-03 10:13:00,46.4,24.6,24.96,NW,313,6.0,-999.0,42,-99.99,,,-99.99,dwt +perl,2013-11-03 18:13:00,
2013-11-03 10:18:00,46.2,23.2,24.96,NW,312,0.0,-999.0,40,-99.99,,,-99.99,dwt +perl,2013-11-03 18:18:00,
2013-11-03 10:19:00,47.2,25.3,24.96,WNW,295,4.0,-999.0,42,-99.99,,,-99.99,dwt +perl,2013-11-03 18:19:00,
2013-11-03 10:28:00,46.5,19.0,24.96,WNW,290,4.0,-999.0,33,-99.99,,,-99.99,dwt +perl,2013-11-03 18:28:00,
2013-11-03 10:34:00,46.8,21.9,24.96,NW,310,5.0,-999.0,37,-99.99,,,-99.99,dwt +perl,2013-11-03 18:34:00,
2013-11-03 10:43:00,46.3,17.3,24.96,NW,318,6.0,-999.0,31,-99.99,,,-99.99,dwt +perl,2013-11-03 18:43:00,
2013-11-03 10:44:00,46.7,19.1,24.96,NW,325,8.0,-999.0,33,-99.99,,,-99.99,dwt +perl,2013-11-03 18:44:00,
2013-11-03 10:48:00,47.0,13.9,24.97,NNW,333,4.0,-999.0,26,-99.99,,,-99.99,dwt +perl,2013-11-03 18:48:00,
2013-11-03 10:49:00,46.5,16.0,24.96,NW,318,11.0,-999.0,29,-99.99,,,-99.99,dwt +perl,2013-11-03 18:49:00,
2013-11-03 10:53:00,47.6,16.1,24.97,WSW,256,1.0,-999.0,28,-99.99,,,-99.99,dwt +perl,2013-11-03 18:53:00,
2013-11-03 10:58:00,48.1,14.0,24.96,West,262,0.0,-999.0,25,-99.99,,,-99.99,dwt +perl,2013-11-03 18:58:00,
2013-11-03 11:03:00,48.2,21.2,24.96,WSW,256,5.0,-999.0,34,-99.99,,,-99.99,dwt +perl,2013-11-03 19:03:00,
2013-11-03 11:18:00,48.2,23.2,24.96,West,270,2.0,-999.0,37,-99.99,,,-99.99,dwt +perl,2013-11-03 19:18:00,
2013-11-03 11:19:00,47.2,21.0,24.96,West,264,3.0,-999.0,35,-99.99,,,-99.99,dwt +perl,2013-11-03 19:19:00,
2013-11-03 11:23:00,49.2,22.0,24.95,West,270,3.0,-999.0,34,-99.99,,,-99.99,dwt +perl,2013-11-03 19:23:00,
2013-11-03 11:24:00,47.2,23.5,24.96,West,270,5.0,-999.0,39,-99.99,,,-99.99,dwt +perl,2013-11-03 19:24:00,
2013-11-03 11:28:00,50.0,12.7,24.95,West,270,4.0,-999.0,22,-99.99,,,-99.99,dwt +perl,2013-11-03 19:28:00,
2013-11-03 11:43:00,49.5,14.2,24.95,West,278,6.0,-999.0,24,-99.99,,,-99.99,dwt +perl,2013-11-03 19:43:00,
2013-11-03 11:44:00,50.1,5.7,24.95,North,10,4.0,-999.0,16,-99.99,,,-99.99,dwt +perl,2013-11-03 19:44:00,
2013-11-03 11:49:00,49.9,4.1,24.94,NW,305,4.0,-999.0,15,-99.99,,,-99.99,dwt +perl,2013-11-03 19:49:00,
2013-11-03 11:53:00,49.1,19.8,24.95,SW,236,6.0,-999.0,31,-99.99,,,-99.99,dwt +perl,2013-11-03 19:53:00,
2013-11-03 11:58:00,48.2,18.2,24.95,West,278,0.0,-999.0,30,-99.99,,,-99.99,dwt +perl,2013-11-03 19:58:00,
2013-11-03 11:59:00,49.2,19.9,24.95,SW,224,3.0,-999.0,31,-99.99,,,-99.99,dwt +perl,2013-11-03 19:59:00,
2013-11-03 12:13:00,49.1,17.4,24.95,SW,234,2.0,-999.0,28,-99.99,,,-99.99,dwt +perl,2013-11-03 20:13:00,
2013-11-03 12:14:00,48.4,17.6,24.95,West,278,1.0,-999.0,29,-99.99,,,-99.99,dwt +perl,2013-11-03 20:14:00,
2013-11-03 12:29:00,49.5,11.2,24.95,West,264,4.0,-999.0,21,-99.99,,,-99.99,dwt +perl,2013-11-03 20:29:00,
2013-11-03 12:34:00,49.0,14.7,24.95,West,276,2.0,-999.0,25,-99.99,,,-99.99,dwt +perl,2013-11-03 20:34:00,
2013-11-03 12:39:00,49.6,15.2,24.94,WNW,293,1.0,-999.0,25,-99.99,,,-99.99,dwt +perl,2013-11-03 20:39:00,
2013-11-03 12:44:00,50.8,15.3,24.94,WNW,293,0.0,-999.0,24,-99.99,,,-99.99,dwt +perl,2013-11-03 20:44:00,
2013-11-03 12:49:00,51.4,-1.3,24.94,NE,43,2.0,-999.0,11,-99.99,,,-99.99,dwt +perl,2013-11-03 20:49:00,
2013-11-03 12:53:00,51.7,0.8,24.93,NE,52,0.0,-999.0,12,-99.99,,,-99.99,dwt +perl,2013-11-03 20:53:00,
2013-11-03 12:54:00,51.4,-3.3,24.93,ENE,60,4.0,-999.0,10,-99.99,,,-99.99,dwt +perl,2013-11-03 20:54:00,
2013-11-03 12:59:00,51.4,0.5,24.93,NE,52,4.0,-999.0,12,-99.99,,,-99.99,dwt +perl,2013-11-03 20:59:00,
2013-11-03 13:04:00,51.7,0.8,24.93,NE,52,0.0,-999.0,12,-99.99,,,-99.99,dwt +perl,2013-11-03 21:04:00,
2013-11-03 13:08:00,51.8,15.2,24.93,WSW,241,7.0,-999.0,23,-99.99,,,-99.99,dwt +perl,2013-11-03 21:08:00,
2013-11-03 13:14:00,52.7,-2.3,24.93,NNW,348,4.0,-999.0,10,-99.99,,,-99.99,dwt +perl,2013-11-03 21:14:00,
2013-11-03 13:24:00,50.6,11.0,24.93,WSW,243,0.0,-999.0,20,-99.99,,,-99.99,dwt +perl,2013-11-03 21:24:00,
2013-11-03 13:29:00,51.1,11.4,24.93,WSW,243,0.0,-999.0,20,-99.99,,,-99.99,dwt +perl,2013-11-03 21:29:00,
2013-11-03 13:34:00,52.4,13.6,24.93,WSW,243,2.0,-999.0,21,-99.99,,,-99.99,dwt +perl,2013-11-03 21:34:00,
2013-11-03 13:39:00,52.9,16.1,24.93,SW,235,4.0,-999.0,23,-99.99,,,-99.99,dwt +perl,2013-11-03 21:39:00,
2013-11-03 13:44:00,52.7,16.0,24.93,WSW,247,3.0,-999.0,23,-99.99,,,-99.99,dwt +perl,2013-11-03 21:44:00,
2013-11-03 13:49:00,52.8,15.0,24.93,WSW,250,2.0,-999.0,22,-99.99,,,-99.99,dwt +perl,2013-11-03 21:49:00,
2013-11-03 13:54:00,52.9,15.1,24.93,WSW,248,6.0,-999.0,22,-99.99,,,-99.99,dwt +perl,2013-11-03 21:54:00,
2013-11-03 13:59:00,52.6,16.9,24.92,WSW,243,4.0,-999.0,24,-99.99,,,-99.99,dwt +perl,2013-11-03 21:59:00,
2013-11-03 14:04:00,51.9,17.2,24.93,WSW,242,4.0,-999.0,25,-99.99,,,-99.99,dwt +perl,2013-11-03 22:04:00,
2013-11-03 14:09:00,51.4,9.3,24.93,WSW,249,2.0,-999.0,18,-99.99,,,-99.99,dwt +perl,2013-11-03 22:09:00,
2013-11-03 14:14:00,52.0,11.0,24.93,WSW,249,0.0,-999.0,19,-99.99,,,-99.99,dwt +perl,2013-11-03 22:14:00,
2013-11-03 14:19:00,52.4,18.5,24.93,WSW,249,2.0,-999.0,26,-99.99,,,-99.99,dwt +perl,2013-11-03 22:19:00,
2013-11-03 14:24:00,52.4,21.1,24.93,WSW,249,1.0,-999.0,29,-99.99,,,-99.99,dwt +perl,2013-11-03 22:24:00,
2013-11-03 14:29:00,52.2,20.9,24.93,WSW,249,0.0,-999.0,29,-99.99,,,-99.99,dwt +perl,2013-11-03 22:29:00,
2013-11-03 14:34:00,52.3,20.2,24.93,WSW,249,0.0,-999.0,28,-99.99,,,-99.99,dwt +perl,2013-11-03 22:34:00,
2013-11-03 14:39:00,51.9,2.6,24.93,West,272,1.0,-999.0,13,-99.99,,,-99.99,dwt +perl,2013-11-03 22:39:00,
2013-11-03 14:44:00,51.7,-1.1,24.92,West,274,1.0,-999.0,11,-99.99,,,-99.99,dwt +perl,2013-11-03 22:44:00,
2013-11-03 14:49:00,51.7,-7.7,24.92,WNW,300,4.0,-999.0,8,-99.99,,,-99.99,dwt +perl,2013-11-03 22:49:00,
2013-11-03 14:54:00,51.1,-3.5,24.93,WNW,300,4.0,-999.0,10,-99.99,,,-99.99,dwt +perl,2013-11-03 22:54:00,
2013-11-03 14:59:00,50.4,-6.2,24.93,WNW,300,3.0,-999.0,9,-99.99,,,-99.99,dwt +perl,2013-11-03 22:59:00,
2013-11-03 15:04:00,50.1,-8.9,24.92,WNW,300,2.0,-999.0,8,-99.99,,,-99.99,dwt +perl,2013-11-03 23:04:00,
2013-11-03 15:09:00,50.0,-2.4,24.92,WNW,300,0.0,-999.0,11,-99.99,,,-99.99,dwt +perl,2013-11-03 23:09:00,
2013-11-03 15:14:00,50.9,19.0,24.93,WNW,300,1.0,-999.0,28,-99.99,,,-99.99,dwt +perl,2013-11-03 23:14:00,
2013-11-03 15:19:00,51.5,21.9,24.92,WNW,300,5.0,-999.0,31,-99.99,,,-99.99,dwt +perl,2013-11-03 23:19:00,
2013-11-03 15:24:00,51.0,12.5,24.92,WNW,300,4.0,-999.0,21,-99.99,,,-99.99,dwt +perl,2013-11-03 23:24:00,
2013-11-03 15:29:00,50.3,10.8,24.93,NNW,327,2.0,-999.0,20,-99.99,,,-99.99,dwt +perl,2013-11-03 23:29:00,
2013-11-03 15:34:00,49.7,-9.2,24.92,NNW,327,0.0,-999.0,8,-99.99,,,-99.99,dwt +perl,2013-11-03 23:34:00,
2013-11-03 15:39:00,49.4,-7.0,24.92,NNW,327,5.0,-999.0,9,-99.99,,,-99.99,dwt +perl,2013-11-03 23:39:00,
2013-11-03 15:44:00,49.2,-9.6,24.92,NNW,329,3.0,-999.0,8,-99.99,,,-99.99,dwt +perl,2013-11-03 23:44:00,
2013-11-03 15:49:00,49.2,-15.3,24.92,NNW,332,3.0,-999.0,6,-99.99,,,-99.99,dwt +perl,2013-11-03 23:49:00,
2013-11-03 15:54:00,49.1,-15.4,24.92,NNW,332,3.0,-999.0,6,-99.99,,,-99.99,dwt +perl,2013-11-03 23:54:00,
2013-11-03 15:59:00,49.0,-15.4,24.92,NNW,332,3.0,-999.0,6,-99.99,,,-99.99,dwt +perl,2013-11-03 23:59:00,
2013-11-03 16:04:00,49.2,-15.3,24.92,NNW,332,5.0,-999.0,6,-99.99,,,-99.99,dwt +perl,2013-11-04 00:04:00,
2013-11-03 16:09:00,49.2,-15.3,24.92,NNW,337,4.0,-999.0,6,-99.99,,,-99.99,dwt +perl,2013-11-04 00:09:00,
2013-11-03 16:14:00,49.1,-15.4,24.92,North,359,2.0,-999.0,6,-99.99,,,-99.99,dwt +perl,2013-11-04 00:14:00,
2013-11-03 16:18:00,48.8,-15.6,24.92,NNE,18,1.0,-999.0,6,-99.99,,,-99.99,dwt +perl,2013-11-04 00:18:00,
2013-11-03 16:24:00,48.8,-15.6,24.92,NNE,18,4.0,-999.0,6,-99.99,,,-99.99,dwt +perl,2013-11-04 00:24:00,
2013-11-03 16:34:00,48.7,-12.6,24.91,NNE,18,0.0,-999.0,7,-99.99,,,-99.99,dwt +perl,2013-11-04 00:34:00,
2013-11-03 16:39:00,48.7,-15.6,24.91,NNE,18,2.0,-999.0,6,-99.99,,,-99.99,dwt +perl,2013-11-04 00:39:00,
2013-11-03 16:44:00,48.6,-15.7,24.91,NNE,18,5.0,-999.0,6,-99.99,,,-99.99,dwt +perl,2013-11-04 00:44:00,
2013-11-03 16:49:00,48.5,-12.8,24.91,NNE,18,2.0,-999.0,7,-99.99,,,-99.99,dwt +perl,2013-11-04 00:49:00,
2013-11-03 16:54:00,48.5,-15.8,24.91,NNE,18,1.0,-999.0,6,-99.99,,,-99.99,dwt +perl,2013-11-04 00:54:00,
2013-11-03 16:59:00,48.5,-12.8,24.91,NNE,18,2.0,-999.0,7,-99.99,,,-99.99,dwt +perl,2013-11-04 00:59:00,
2013-11-03 17:03:00,48.3,-15.9,24.91,NNE,18,5.0,-999.0,6,-99.99,,,-99.99,dwt +perl,2013-11-04 01:03:00,
2013-11-03 17:04:00,48.3,-12.9,24.91,NNE,18,2.0,-999.0,7,-99.99,,,-99.99,dwt +perl,2013-11-04 01:04:00,
2013-11-03 17:09:00,48.3,-15.9,24.90,NNE,18,5.0,-999.0,6,-99.99,,,-99.99,dwt +perl,2013-11-04 01:09:00,
2013-11-03 17:19:00,48.3,-15.9,24.91,NNE,18,4.0,-999.0,6,-99.99,,,-99.99,dwt +perl,2013-11-04 01:19:00,
2013-11-03 17:24:00,48.1,-13.1,24.91,NNE,18,4.0,-999.0,7,-99.99,,,-99.99,dwt +perl,2013-11-04 01:24:00,
2013-11-03 17:29:00,48.1,-16.1,24.91,NNE,18,5.0,-999.0,6,-99.99,,,-99.99,dwt +perl,2013-11-04 01:29:00,
2013-11-03 17:34:00,48.2,-19.5,24.91,NNE,18,5.0,-999.0,5,-99.99,,,-99.99,dwt +perl,2013-11-04 01:34:00,
2013-11-03 17:38:00,47.5,-10.8,24.92,NNW,328,8.0,-999.0,8,-99.99,,,-99.99,dwt +perl,2013-11-04 01:38:00,
2013-11-03 17:39:00,48.2,-16.0,24.91,NNE,22,5.0,-999.0,6,-99.99,,,-99.99,dwt +perl,2013-11-04 01:39:00,
2013-11-03 17:44:00,47.9,-13.2,24.91,NNE,33,2.0,-999.0,7,-99.99,,,-99.99,dwt +perl,2013-11-04 01:44:00,
2013-11-03 17:54:00,47.4,-10.9,24.92,NW,321,8.0,-999.0,8,-99.99,,,-99.99,dwt +perl,2013-11-04 01:54:00,
2013-11-03 17:59:00,47.0,-11.2,24.91,North,354,3.0,-999.0,8,-99.99,,,-99.99,dwt +perl,2013-11-04 01:59:00,
2013-11-03 18:04:00,46.7,-9.1,24.91,NNE,28,7.0,-999.0,9,-99.99,,,-99.99,dwt +perl,2013-11-04 02:04:00,
2013-11-03 18:09:00,46.6,-7.0,24.91,NNE,21,5.0,-999.0,10,-99.99,,,-99.99,dwt +perl,2013-11-04 02:09:00,
2013-11-03 18:14:00,46.4,-5.2,24.92,NW,320,2.0,-999.0,11,-99.99,,,-99.99,dwt +perl,2013-11-04 02:14:00,
2013-11-03 18:19:00,46.0,-2.0,24.92,NW,306,6.0,-999.0,13,-99.99,,,-99.99,dwt +perl,2013-11-04 02:19:00,
2013-11-03 18:24:00,45.3,0.4,24.91,NNE,12,7.0,-999.0,15,-99.99,,,-99.99,dwt +perl,2013-11-04 02:24:00,
2013-11-03 18:29:00,45.5,-4.1,24.91,NNE,27,7.0,-999.0,12,-99.99,,,-99.99,dwt +perl,2013-11-04 02:29:00,
2013-11-03 18:34:00,45.6,-5.8,24.91,NNE,21,7.0,-999.0,11,-99.99,,,-99.99,dwt +perl,2013-11-04 02:34:00,
2013-11-03 18:39:00,45.5,-2.4,24.91,NNE,21,7.0,-999.0,13,-99.99,,,-99.99,dwt +perl,2013-11-04 02:39:00,
2013-11-03 18:44:00,45.4,-1.0,24.91,NNE,27,6.0,-999.0,14,-99.99,,,-99.99,dwt +perl,2013-11-04 02:44:00,
2013-11-03 18:49:00,45.4,-2.5,24.91,NNE,22,7.0,-999.0,13,-99.99,,,-99.99,dwt +perl,2013-11-04 02:49:00,
2013-11-03 18:54:00,45.5,-2.4,24.91,NNE,26,8.0,-999.0,13,-99.99,,,-99.99,dwt +perl,2013-11-04 02:54:00,
2013-11-03 18:59:00,45.5,-4.1,24.91,NNE,27,8.0,-999.0,12,-99.99,,,-99.99,dwt +perl,2013-11-04 02:59:00,
2013-11-03 19:04:00,45.5,-2.4,24.91,NNE,21,11.0,-999.0,13,-99.99,,,-99.99,dwt +perl,2013-11-04 03:04:00,
2013-11-03 19:09:00,45.8,-7.6,24.91,NNE,28,8.0,-999.0,10,-99.99,,,-99.99,dwt +perl,2013-11-04 03:09:00,
2013-11-03 19:14:00,46.0,-12.0,24.91,NNE,26,10.0,-999.0,8,-99.99,,,-99.99,dwt +perl,2013-11-04 03:14:00,
2013-11-03 19:23:00,45.2,-1.1,24.91,NE,49,7.0,-999.0,14,-99.99,,,-99.99,dwt +perl,2013-11-04 03:23:00,
2013-11-03 19:24:00,45.8,-5.7,24.91,NE,52,10.0,-999.0,11,-99.99,,,-99.99,dwt +perl,2013-11-04 03:24:00,
2013-11-03 19:29:00,45.6,-4.0,24.91,ENE,59,11.0,-999.0,12,-99.99,,,-99.99,dwt +perl,2013-11-04 03:29:00,
2013-11-03 19:33:00,45.2,-2.7,24.91,NE,45,4.0,-999.0,13,-99.99,,,-99.99,dwt +perl,2013-11-04 03:33:00,
2013-11-03 19:39:00,45.1,-1.2,24.91,NE,52,11.0,-999.0,14,-99.99,,,-99.99,dwt +perl,2013-11-04 03:39:00,
2013-11-03 19:49:00,45.2,-2.7,24.92,NE,43,1.0,-999.0,13,-99.99,,,-99.99,dwt +perl,2013-11-04 03:49:00,
2013-11-03 19:54:00,45.1,1.6,24.92,NE,48,7.0,-999.0,16,-99.99,,,-99.99,dwt +perl,2013-11-04 03:54:00,
2013-11-03 19:59:00,44.1,16.9,24.91,NNE,28,6.0,-999.0,33,-99.99,,,-99.99,dwt +perl,2013-11-04 03:59:00,
2013-11-03 20:04:00,42.9,16.5,24.92,NW,310,5.0,-999.0,34,-99.99,,,-99.99,dwt +perl,2013-11-04 04:04:00,
2013-11-03 20:09:00,42.9,6.7,24.91,NNE,30,6.0,-999.0,22,-99.99,,,-99.99,dwt +perl,2013-11-04 04:09:00,
2013-11-03 20:14:00,43.6,4.1,24.91,NE,45,4.0,-999.0,19,-99.99,,,-99.99,dwt +perl,2013-11-04 04:14:00,
2013-11-03 20:19:00,44.7,-0.1,24.91,NE,42,8.0,-999.0,15,-99.99,,,-99.99,dwt +perl,2013-11-04 04:19:00,
2013-11-03 20:24:00,45.2,-8.1,24.92,NE,45,3.0,-999.0,10,-99.99,,,-99.99,dwt +perl,2013-11-04 04:24:00,
2013-11-03 20:29:00,45.3,-10.1,24.91,NE,45,5.0,-999.0,9,-99.99,,,-99.99,dwt +perl,2013-11-04 04:29:00,
2013-11-03 20:34:00,45.4,-7.9,24.91,NE,53,8.0,-999.0,10,-99.99,,,-99.99,dwt +perl,2013-11-04 04:34:00,
2013-11-03 20:39:00,45.4,-10.1,24.91,NE,46,5.0,-999.0,9,-99.99,,,-99.99,dwt +perl,2013-11-04 04:39:00,
2013-11-03 20:43:00,43.9,4.3,24.91,NE,46,6.0,-999.0,19,-99.99,,,-99.99,dwt +perl,2013-11-04 04:43:00,
2013-11-03 20:44:00,45.3,-8.0,24.91,NE,41,4.0,-999.0,10,-99.99,,,-99.99,dwt +perl,2013-11-04 04:44:00,
2013-11-03 20:53:00,43.3,7.0,24.91,NNE,28,4.0,-999.0,22,-99.99,,,-99.99,dwt +perl,2013-11-04 04:53:00,
2013-11-03 20:58:00,43.9,3.2,24.91,NNE,25,8.0,-999.0,18,-99.99,,,-99.99,dwt +perl,2013-11-04 04:58:00,
2013-11-03 20:59:00,43.8,4.3,24.92,NNW,345,5.0,-999.0,19,-99.99,,,-99.99,dwt +perl,2013-11-04 04:59:00,
2013-11-03 21:03:00,44.1,5.6,24.91,NNE,31,8.0,-999.0,20,-99.99,,,-99.99,dwt +perl,2013-11-04 05:03:00,
2013-11-03 21:08:00,43.6,8.3,24.91,NNE,23,3.0,-999.0,23,-99.99,,,-99.99,dwt +perl,2013-11-04 05:08:00,
2013-11-03 21:13:00,43.2,9.8,24.91,NNE,23,4.0,-999.0,25,-99.99,,,-99.99,dwt +perl,2013-11-04 05:13:00,
2013-11-03 21:18:00,43.6,4.1,24.91,NNE,23,3.0,-999.0,19,-99.99,,,-99.99,dwt +perl,2013-11-04 05:18:00,
2013-11-03 21:23:00,43.3,14.0,24.91,NE,48,6.0,-999.0,30,-99.99,,,-99.99,dwt +perl,2013-11-04 05:23:00,
2013-11-03 21:28:00,42.1,18.3,24.91,NE,45,2.0,-999.0,38,-99.99,,,-99.99,dwt +perl,2013-11-04 05:28:00,
2013-11-03 21:33:00,41.7,16.7,24.91,NE,45,5.0,-999.0,36,-99.99,,,-99.99,dwt +perl,2013-11-04 05:33:00,
2013-11-03 21:38:00,41.9,18.8,24.91,NE,45,4.0,-999.0,39,-99.99,,,-99.99,dwt +perl,2013-11-04 05:38:00,
2013-11-03 21:43:00,41.4,21.1,24.91,NNE,33,6.0,-999.0,44,-99.99,,,-99.99,dwt +perl,2013-11-04 05:43:00,
2013-11-03 21:48:00,41.5,19.0,24.91,NNE,30,4.0,-999.0,40,-99.99,,,-99.99,dwt +perl,2013-11-04 05:48:00,
2013-11-03 21:53:00,41.7,20.9,24.91,NNE,30,2.0,-999.0,43,-99.99,,,-99.99,dwt +perl,2013-11-04 05:53:00,
2013-11-03 21:58:00,41.4,21.1,24.91,NNE,30,2.0,-999.0,44,-99.99,,,-99.99,dwt +perl,2013-11-04 05:58:00,
2013-11-03 22:03:00,41.2,21.5,24.90,NE,35,1.0,-999.0,45,-99.99,,,-99.99,dwt +perl,2013-11-04 06:03:00,
2013-11-03 22:08:00,41.2,21.0,24.91,NE,35,2.0,-999.0,44,-99.99,,,-99.99,dwt +perl,2013-11-04 06:08:00,
2013-11-03 22:13:00,41.4,21.1,24.90,NE,37,6.0,-999.0,44,-99.99,,,-99.99,dwt +perl,2013-11-04 06:13:00,
2013-11-03 22:18:00,41.1,20.9,24.90,NE,46,6.0,-999.0,44,-99.99,,,-99.99,dwt +perl,2013-11-04 06:18:00,
2013-11-03 22:23:00,40.7,21.5,24.90,NE,47,4.0,-999.0,46,-99.99,,,-99.99,dwt +perl,2013-11-04 06:23:00,
2013-11-03 22:28:00,40.8,20.0,24.89,NE,47,8.0,-999.0,43,-99.99,,,-99.99,dwt +perl,2013-11-04 06:28:00,
2013-11-03 22:33:00,41.0,20.2,24.89,NE,50,10.0,-999.0,43,-99.99,,,-99.99,dwt +perl,2013-11-04 06:33:00,
2013-11-03 22:38:00,40.7,20.0,24.89,NE,49,3.0,-999.0,43,-99.99,,,-99.99,dwt +perl,2013-11-04 06:38:00,
2013-11-03 22:43:00,40.8,20.6,24.90,NE,40,6.0,-999.0,44,-99.99,,,-99.99,dwt +perl,2013-11-04 06:43:00,
2013-11-03 22:48:00,40.9,20.7,24.90,NE,34,6.0,-999.0,44,-99.99,,,-99.99,dwt +perl,2013-11-04 06:48:00,
2013-11-03 22:53:00,40.7,21.0,24.90,NNE,33,5.0,-999.0,45,-99.99,,,-99.99,dwt +perl,2013-11-04 06:53:00,
2013-11-03 22:58:00,40.5,20.9,24.90,NNE,31,6.0,-999.0,45,-99.99,,,-99.99,dwt +perl,2013-11-04 06:58:00,
2013-11-03 23:03:00,40.3,21.2,24.90,NNE,31,4.0,-999.0,46,-99.99,,,-99.99,dwt +perl,2013-11-04 07:03:00,
2013-11-03 23:08:00,40.1,21.0,24.90,NNE,31,1.0,-999.0,46,-99.99,,,-99.99,dwt +perl,2013-11-04 07:08:00,
2013-11-03 23:13:00,39.8,20.7,24.90,NNE,31,2.0,-999.0,46,-99.99,,,-99.99,dwt +perl,2013-11-04 07:13:00,
2013-11-03 23:18:00,39.9,20.8,24.91,NNE,31,1.0,-999.0,46,-99.99,,,-99.99,dwt +perl,2013-11-04 07:18:00,
2013-11-03 23:23:00,39.9,18.1,24.90,NNE,31,4.0,-999.0,41,-99.99,,,-99.99,dwt +perl,2013-11-04 07:23:00,
2013-11-03 23:28:00,39.8,18.6,24.90,NNE,31,4.0,-999.0,42,-99.99,,,-99.99,dwt +perl,2013-11-04 07:28:00,
2013-11-03 23:33:00,39.7,19.6,24.90,NNE,28,3.0,-999.0,44,-99.99,,,-99.99,dwt +perl,2013-11-04 07:33:00,
2013-11-03 23:38:00,39.5,19.9,24.90,NNE,27,3.0,-999.0,45,-99.99,,,-99.99,dwt +perl,2013-11-04 07:38:00,
2013-11-03 23:43:00,39.1,20.1,24.90,NNE,28,3.0,-999.0,46,-99.99,,,-99.99,dwt +perl,2013-11-04 07:43:00,
2013-11-03 23:48:00,39.0,20.5,24.91,NNE,27,5.0,-999.0,47,-99.99,,,-99.99,dwt +perl,2013-11-04 07:48:00,
2013-11-03 23:53:00,38.3,20.4,24.90,NNE,27,5.0,-999.0,48,-99.99,,,-99.99,dwt +perl,2013-11-04 07:53:00,
2013-11-03 23:58:00,37.5,20.1,24.90,NNE,28,6.0,-999.0,49,-99.99,,,-99.99,dwt +perl,2013-11-04 07:58:00,